Radiation Dose at Monitoring Post of Fukushima Daini Nuclear Power Station
Date,Time,MP-1(microSv/h),MP-2(microSv/h),MP-3(microSv/h),MP-4(microSv/h),MP-5(microSv/h),MP-6(microSv/h),MP-7(microSv/h),Wind Direction,Wind Velocity(m/s),Rain
2016/02/19,00:00,0.462,0.267,0.482,0.434,0.399,0.219,0.193,southwest,11.8,No
2016/02/19,00:10,0.461,0.267,0.482,0.435,0.398,0.219,0.192,southwest,9.6,No
2016/02/19,00:20,0.461,0.268,0.484,0.436,0.397,0.219,0.191,west-southwest,8.1,No
2016/02/19,00:30,0.461,0.268,0.484,0.435,0.398,0.219,0.194,southwest,6.1,No
2016/02/19,00:40,0.463,0.267,0.481,0.434,0.399,0.220,0.193,southwest,6.3,No
2016/02/19,00:50,0.461,0.267,0.484,0.436,0.398,0.220,0.193,southwest,4.9,No
2016/02/19,01:00,0.461,0.268,0.483,0.435,0.398,0.220,0.194,south-southwest,4.1,No
2016/02/19,01:10,0.462,0.268,0.482,0.435,0.399,0.220,0.193,south-southwest,6.7,No
2016/02/19,01:20,0.463,0.267,0.483,0.435,0.399,0.221,0.193,south-southwest,2.7,No
2016/02/19,01:30,0.461,0.267,0.482,0.437,0.399,0.219,0.193,south-southeast,1.9,No
2016/02/19,01:40,0.462,0.267,0.482,0.435,0.398,0.219,0.193,south-southeast,1.9,No
2016/02/19,01:50,0.462,0.268,0.482,0.435,0.399,0.221,0.192,south,2.6,No
2016/02/19,02:00,0.460,0.268,0.484,0.436,0.400,0.219,0.192,south-southwest,1.5,No
2016/02/19,02:10,0.460,0.267,0.485,0.436,0.398,0.219,0.192,south-southwest,2.8,No
2016/02/19,02:20,0.461,0.267,0.482,0.433,0.398,0.221,0.193,south-southwest,3.5,No
2016/02/19,02:30,0.461,0.267,0.481,0.433,0.399,0.220,0.193,south-southwest,3.4,No
2016/02/19,02:40,0.461,0.268,0.484,0.435,0.398,0.221,0.193,southwest,2.7,No
2016/02/19,02:50,0.461,0.268,0.483,0.436,0.398,0.220,0.193,south-southwest,1.7,No
2016/02/19,03:00,0.461,0.267,0.482,0.435,0.397,0.220,0.194,south-southwest,1.5,No
2016/02/19,03:10,0.460,0.267,0.482,0.435,0.398,0.219,0.193,south-southwest,1.5,No
2016/02/19,03:20,0.460,0.268,0.484,0.437,0.400,0.220,0.193,south-southwest,1.7,No
2016/02/19,03:30,0.461,0.268,0.485,0.436,0.398,0.221,0.193,-,CALM,No
2016/02/19,03:40,0.459,0.268,0.483,0.436,0.397,0.221,0.193,-,CALM,No
2016/02/19,03:50,0.461,0.268,0.483,0.436,0.400,0.221,0.194,-,CALM,No
2016/02/19,04:00,0.460,0.267,0.485,0.434,0.398,0.221,0.192,north,1.0,No
2016/02/19,04:10,0.460,0.268,0.484,0.436,0.398,0.220,0.193,north,2.2,No
2016/02/19,04:20,0.459,0.269,0.482,0.435,0.397,0.220,0.193,north-northwest,2.6,No
2016/02/19,04:30,0.461,0.267,0.482,0.435,0.399,0.219,0.193,west-southwest,2.3,No
2016/02/19,04:40,0.461,0.267,0.482,0.433,0.400,0.219,0.193,west-southwest,2.5,No
2016/02/19,04:50,0.460,0.268,0.485,0.436,0.398,0.220,0.194,west-southwest,2.7,No
2016/02/19,05:00,0.461,0.267,0.483,0.436,0.398,0.219,0.192,west,2.1,No
2016/02/19,05:10,0.459,0.267,0.484,0.435,0.398,0.220,0.194,west,2.1,No
2016/02/19,05:20,0.460,0.267,0.482,0.434,0.399,0.220,0.192,west,3.2,No
2016/02/19,05:30,0.460,0.270,0.484,0.435,0.398,0.220,0.194,west-southwest,1.4,No
2016/02/19,05:40,0.459,0.268,0.483,0.436,0.398,0.220,0.193,west-northwest,1.2,No
2016/02/19,05:50,0.462,0.268,0.483,0.435,0.397,0.220,0.193,-,CALM,No
2016/02/19,06:00,0.461,0.268,0.484,0.436,0.398,0.219,0.194,south-southwest,0.6,No
2016/02/19,06:10,0.460,0.267,0.484,0.433,0.399,0.220,0.194,-,CALM,No
2016/02/19,06:20,0.461,0.268,0.485,0.437,0.400,0.220,0.193,-,CALM,No
2016/02/19,06:30,0.459,0.267,0.483,0.435,0.396,0.220,0.192,-,CALM,No
2016/02/19,06:40,0.461,0.267,0.483,0.435,0.398,0.220,0.193,-,CALM,No
2016/02/19,06:50,0.461,0.266,0.483,0.435,0.400,0.219,0.193,-,CALM,No
2016/02/19,07:00,0.461,0.267,0.483,0.434,0.397,0.220,0.193,-,CALM,No
2016/02/19,07:10,0.461,0.268,0.482,0.435,0.395,0.219,0.194,-,CALM,No
2016/02/19,07:20,0.456,0.262,0.478,0.427,0.384,0.218,0.190,-,CALM,No
2016/02/19,07:30,0.443,0.255,0.464,0.416,0.377,0.213,0.186,-,CALM,No
2016/02/19,07:40,0.435,0.251,0.459,0.413,0.369,0.209,0.183,-,CALM,No
2016/02/19,07:50,0.432,0.247,0.457,0.412,0.368,0.208,0.182,-,CALM,No
2016/02/19,08:00,0.432,0.244,0.460,0.412,0.368,0.207,0.182,-,CALM,No
2016/02/19,08:10,0.457,0.262,0.487,0.436,0.399,0.217,0.190,south,0.6,No
2016/02/19,08:20,0.478,0.272,0.503,0.449,0.420,0.225,0.195,south-southwest,0.8,No
2016/02/19,08:30,0.479,0.275,0.501,0.446,0.421,0.226,0.196,south-southwest,2.1,No
2016/02/19,08:40,0.475,0.274,0.499,0.443,0.415,0.224,0.195,south,1.6,No
2016/02/19,08:50,0.471,0.273,0.494,0.443,0.409,0.222,0.194,south-southeast,2.5,No
2016/02/19,09:00,0.466,0.270,0.489,0.437,0.412,0.221,0.192,south,1.0,No
2016/02/19,09:10,0.465,0.270,0.488,0.438,0.404,0.222,0.192,south-southeast,2.0,No
2016/02/19,09:20,0.464,0.267,0.485,0.436,0.402,0.222,0.194,south,3.1,No
2016/02/19,09:30,0.462,0.267,0.483,0.436,0.403,0.219,0.193,south-southwest,4.1,No
2016/02/19,09:40,0.461,0.267,0.484,0.436,0.399,0.220,0.194,south,4.2,No
2016/02/19,09:50,0.459,0.266,0.482,0.433,0.398,0.220,0.193,south-southeast,5.6,No
2016/02/19,10:00,0.457,0.267,0.483,0.433,0.398,0.220,0.192,south-southeast,5.2,No
2016/02/19,10:10,0.457,0.265,0.482,0.433,0.398,0.220,0.192,south-southeast,5.1,No
2016/02/19,10:20,0.457,0.267,0.479,0.433,0.399,0.218,0.193,south,5.1,No
2016/02/19,10:30,0.459,0.265,0.482,0.432,0.398,0.220,0.193,southwest,1.8,No
2016/02/19,10:40,0.456,0.269,0.481,0.433,0.398,0.219,0.192,east-northeast,1.3,No
2016/02/19,10:50,0.459,0.266,0.479,0.434,0.397,0.219,0.192,south-southwest,1.4,No
2016/02/19,11:00,0.456,0.268,0.483,0.429,0.397,0.218,0.192,west-southwest,6.5,No
2016/02/19,11:10,0.462,0.265,0.478,0.434,0.400,0.219,0.191,west-southwest,11.2,No
2016/02/19,11:20,0.457,0.267,0.484,0.432,0.396,0.219,0.193,west-southwest,9.6,No
2016/02/19,11:30,0.459,0.267,0.477,0.431,0.400,0.221,0.192,west,8.4,No
2016/02/19,11:40,0.459,0.267,0.480,0.436,0.396,0.219,0.192,west-southwest,8.8,No
2016/02/19,11:50,0.457,0.268,0.479,0.430,0.402,0.219,0.192,west,7.0,No
2016/02/19,12:00,0.463,0.266,0.480,0.434,0.396,0.219,0.193,west,7.3,No
2016/02/19,12:10,0.458,0.268,0.482,0.435,0.401,0.221,0.193,west,7.2,No
2016/02/19,12:20,0.460,0.265,0.476,0.430,0.400,0.219,0.193,west,8.4,No
2016/02/19,12:30,0.462,0.268,0.482,0.435,0.397,0.220,0.193,west,8.7,No
2016/02/19,12:40,0.457,0.266,0.482,0.435,0.401,0.222,0.193,west,5.4,No
2016/02/19,12:50,0.463,0.267,0.477,0.430,0.396,0.218,0.193,west,6.7,No
2016/02/19,13:00,0.459,0.268,0.485,0.435,0.400,0.220,0.192,west,5.9,No
2016/02/19,13:10,0.464,0.267,0.481,0.435,0.400,0.219,0.193,west,5.5,No
2016/02/19,13:20,0.461,0.268,0.476,0.432,0.396,0.221,0.192,west-northwest,5.0,No
2016/02/19,13:30,0.462,0.266,0.482,0.432,0.402,0.220,0.193,west,5.5,No
2016/02/19,13:40,0.463,0.268,0.479,0.438,0.400,0.219,0.192,west,7.8,No
2016/02/19,13:50,0.462,0.267,0.477,0.433,0.396,0.221,0.192,west-northwest,6.2,No
2016/02/19,14:00,0.463,0.267,0.484,0.432,0.403,0.220,0.192,west,3.5,No
2016/02/19,14:10,0.461,0.268,0.481,0.437,0.398,0.220,0.193,-,CALM,No
2016/02/19,14:20,0.464,0.267,0.480,0.435,0.395,0.220,0.193,west,6.2,No
2016/02/19,14:30,0.461,0.268,0.485,0.433,0.396,0.220,0.193,west-northwest,6.0,No
2016/02/19,14:40,0.464,0.267,0.481,0.437,0.398,0.221,0.193,west,4.9,No
2016/02/19,14:50,0.461,0.269,0.486,0.435,0.401,0.219,0.194,west,5.5,No
2016/02/19,15:00,0.466,0.266,0.482,0.439,0.400,0.219,0.194,west-northwest,4.4,No
2016/02/19,15:10,0.461,0.269,0.485,0.437,0.398,0.219,0.194,west-southwest,4.1,No
2016/02/19,15:20,0.464,0.268,0.484,0.438,0.401,0.220,0.193,northwest,6.3,No
2016/02/19,15:30,0.462,0.270,0.487,0.436,0.400,0.220,0.193,northwest,5.5,No
2016/02/19,15:40,0.464,0.267,0.484,0.439,0.401,0.219,0.192,west-northwest,6.2,No
2016/02/19,15:50,0.460,0.268,0.485,0.436,0.399,0.219,0.193,west-northwest,6.5,No
2016/02/19,16:00,0.462,0.269,0.483,0.438,0.402,0.219,0.193,west,8.4,No
2016/02/19,16:10,0.463,0.267,0.485,0.438,0.400,0.222,0.193,west-northwest,8.1,No
2016/02/19,16:20,0.462,0.269,0.484,0.436,0.402,0.220,0.193,west-northwest,4.8,No
2016/02/19,16:30,0.464,0.266,0.483,0.437,0.400,0.221,0.194,northwest,8.2,No
2016/02/19,16:40,0.462,0.268,0.485,0.436,0.399,0.220,0.193,west-northwest,8.4,No
2016/02/19,16:50,0.464,0.269,0.481,0.438,0.401,0.222,0.192,west-northwest,8.7,No
2016/02/19,17:00,0.462,0.268,0.486,0.436,0.400,0.219,0.193,west-northwest,8.2,No
2016/02/19,17:10,0.464,0.268,0.482,0.436,0.401,0.220,0.194,west-northwest,8.7,No
2016/02/19,17:20,0.463,0.267,0.484,0.439,0.401,0.221,0.192,west-northwest,9.3,No
2016/02/19,17:30,0.464,0.267,0.485,0.435,0.400,0.221,0.193,west-northwest,11.4,No
2016/02/19,17:40,0.464,0.269,0.483,0.438,0.402,0.219,0.192,west-northwest,11.2,No
2016/02/19,17:50,0.463,0.268,0.485,0.438,0.400,0.220,0.193,west-northwest,10.4,No
2016/02/19,18:00,0.464,0.268,0.483,0.436,0.399,0.222,0.194,west-northwest,11.4,No
2016/02/19,18:10,0.465,0.268,0.485,0.438,0.400,0.220,0.194,west-northwest,10.7,No
2016/02/19,18:20,0.461,0.267,0.484,0.438,0.399,0.220,0.193,west-northwest,9.8,No
2016/02/19,18:30,0.464,0.269,0.481,0.435,0.399,0.220,0.193,west-northwest,8.7,No
2016/02/19,18:40,0.463,0.269,0.485,0.439,0.401,0.220,0.193,west,8.1,No
2016/02/19,18:50,0.462,0.268,0.483,0.436,0.398,0.220,0.194,west,7.3,No
2016/02/19,19:00,0.464,0.268,0.485,0.437,0.400,0.220,0.193,west,7.6,No
2016/02/19,19:10,0.462,0.267,0.486,0.439,0.400,0.220,0.195,west,8.1,No
2016/02/19,19:20,0.463,0.268,0.482,0.437,0.398,0.219,0.194,west-northwest,9.2,No
2016/02/19,19:30,0.464,0.270,0.485,0.438,0.399,0.220,0.195,west,8.4,No
2016/02/19,19:40,0.463,0.268,0.482,0.436,0.400,0.220,0.193,west-northwest,8.8,No
2016/02/19,19:50,0.465,0.268,0.482,0.436,0.399,0.220,0.194,west-northwest,7.7,No
2016/02/19,20:00,0.462,0.269,0.486,0.438,0.399,0.220,0.193,west-northwest,8.9,No
2016/02/19,20:10,0.462,0.268,0.483,0.437,0.399,0.220,0.194,west-northwest,9.0,No
2016/02/19,20:20,0.465,0.267,0.486,0.437,0.398,0.219,0.193,west-northwest,8.9,No
2016/02/19,20:30,0.462,0.267,0.485,0.439,0.399,0.221,0.193,west-northwest,9.2,No
2016/02/19,20:40,0.464,0.268,0.484,0.437,0.400,0.220,0.193,west-northwest,7.9,No
2016/02/19,20:50,0.465,0.269,0.484,0.435,0.399,0.220,0.193,west-northwest,7.6,No
2016/02/19,21:00,0.462,0.268,0.482,0.438,0.399,0.221,0.193,west-northwest,8.6,No
2016/02/19,21:10,0.464,0.268,0.483,0.436,0.399,0.220,0.193,west-northwest,7.9,No
2016/02/19,21:20,0.463,0.267,0.487,0.436,0.399,0.220,0.193,west-northwest,7.9,No
2016/02/19,21:30,0.463,0.269,0.483,0.438,0.400,0.221,0.194,west-northwest,7.3,No
2016/02/19,21:40,0.464,0.268,0.485,0.436,0.401,0.220,0.193,west-northwest,6.7,No
2016/02/19,21:50,0.460,0.268,0.486,0.436,0.398,0.219,0.193,west-southwest,3.1,No
2016/02/19,22:00,0.463,0.269,0.482,0.437,0.401,0.221,0.193,south,3.0,No
2016/02/19,22:10,0.464,0.268,0.487,0.436,0.399,0.221,0.192,southwest,2.8,No
2016/02/19,22:20,0.463,0.268,0.485,0.437,0.399,0.220,0.193,west,2.7,No
2016/02/19,22:30,0.464,0.269,0.482,0.437,0.401,0.219,0.194,northwest,1.6,No
2016/02/19,22:40,0.463,0.268,0.486,0.436,0.400,0.220,0.193,north,1.3,No
2016/02/19,22:50,0.464,0.268,0.484,0.440,0.399,0.219,0.194,-,CALM,No
2016/02/19,23:00,0.466,0.268,0.485,0.437,0.401,0.219,0.193,south,2.1,No
2016/02/19,23:10,0.464,0.267,0.487,0.434,0.399,0.220,0.194,south,1.7,No
2016/02/19,23:20,0.463,0.267,0.484,0.439,0.398,0.220,0.193,south-southwest,0.7,No
2016/02/19,23:30,0.465,0.268,0.486,0.437,0.400,0.220,0.193,west,2.5,No
2016/02/19,23:40,0.464,0.268,0.485,0.437,0.400,0.221,0.194,west-southwest,4.1,No
2016/02/19,23:50,0.464,0.268,0.482,0.438,0.399,0.220,0.193,west,2.4,No
